FW2611 Weather Reports


Display with metric or nautical units.
time (UTC)temp
F
wind
direction
speed
MPH
gust
MPH
rain 1hr
in
rain 24hr
in
rain mn
in
humidity
%
barometer
mb
20260505124524 57 211 4.0 10.0 0.00 0.00 0.00 83 1013.7
20260505123030 57 220 4.0 14.0 0.00 0.00 0.00 84 1013.5
20260505121525 56 200 6.0 11.0 0.00 0.00 0.00 85 1013.6
20260505120013 56 209 7.0 16.0 0.00 0.00 0.00 86 1013.4
20260505114520 56 209 8.0 15.0 0.00 0.00 0.00 86 1013.4
20260505113034 56 192 6.0 13.0 0.00 0.00 0.00 86 1013.3
20260505111541 55 171 4.0 11.0 0.00 0.00 0.00 86 1013.3
20260505101532 54 207 6.0 14.0 0.00 0.00 0.00 89 1012.5
20260505100033 54 224 4.0 9.0 0.00 0.00 0.00 89 1012.6
20260505094528 54 205 4.0 12.0 0.00 0.00 0.00 89 1012.4
20260505093022 54 197 4.0 7.0 0.00 0.00 0.00 88 1012.4
20260505091505 55 202 2.0 8.0 0.00 0.00 0.00 88 1012.2
20260505090008 54 222 5.0 10.0 0.00 0.00 0.00 89 1012.1
20260505084517 54 219 4.0 11.0 0.00 0.00 0.00 89 1012.2
20260505083021 55 221 8.0 14.0 0.00 0.00 0.00 89 1012.2
20260505081526 54 193 9.0 16.0 0.00 0.00 0.00 89 1012.2
20260505080012 55 234 9.0 15.0 0.00 0.00 0.00 89 1012.3
20260505074510 55 194 5.0 11.0 0.00 0.00 0.00 89 1012.3
20260505073017 55 215 5.0 14.0 0.00 0.00 0.00 89 1012.3
20260505071520 54 216 5.0 12.0 0.00 0.00 0.00 89 1012.1
20260505070028 54 207 6.0 12.0 0.00 0.00 0.00 89 1012.1
20260505064508 54 191 7.0 15.0 0.00 0.00 0.00 89 1012.1
20260505063009 54 215 7.0 16.0 0.00 0.00 0.00 89 1012.2
20260505061528 54 211 8.0 15.0 0.00 0.00 0.00 89 1012.3
20260505060027 54 200 6.0 12.0 0.00 0.00 0.00 89 1012.3
20260505054525 54 207 3.0 13.0 0.00 0.00 0.00 88 1012.4
20260505053026 54 219 4.0 13.0 0.00 0.00 0.00 88 1012.5
20260505051515 54 208 5.0 11.0 0.00 0.00 0.00 87 1012.5
20260505041532 55 209 7.0 15.0 0.00 0.00 0.00 85 1012.8
20260505040015 55 212 7.0 12.0 0.00 0.00 0.00 85 1012.8
20260505034522 55 217 6.0 13.0 0.00 0.00 0.00 85 1012.8
20260505033024 55 163 5.0 13.0 0.00 0.00 0.00 85 1012.8
20260505031527 55 211 7.0 17.0 0.00 0.00 0.00 85 1012.8
20260505024512 55 207 7.0 16.0 0.00 0.00 0.00 85 1013.0
20260505023003 55 193 7.0 17.0 0.00 0.00 0.00 86 1013.1
20260505021504 55 204 8.0 16.0 0.00 0.00 0.00 86 1013.1
20260505020004 55 201 5.0 15.0 0.00 0.00 0.00 85 1013.1
20260505014508 55 175 6.0 13.0 0.00 0.00 0.00 85 1013.1
20260505013017 55 161 7.0 14.0 0.00 0.00 0.00 84 1013.1
20260505011506 55 196 9.0 16.0 0.00 0.00 0.00 83 1012.9
20260505010008 55 229 10.0 17.0 0.00 0.00 0.00 82 1012.8
20260505004508 56 231 9.0 17.0 0.00 0.00 0.00 81 1012.8
20260505003010 56 212 11.0 22.0 0.00 0.00 0.00 80 1012.6
20260505001506 57 203 11.0 20.0 0.00 0.00 0.00 79 1012.4
20260505000026 57 193 11.0 20.0 0.00 0.00 0.00 78 1012.3
20260504234508 57 200 8.0 16.0 0.00 0.00 0.00 77 1012.0
20260504233015 59 218 11.0 20.0 0.00 0.00 0.00 74 1012.2
20260504231522 60 186 12.0 20.0 0.00 0.00 0.00 72 1012.1
20260504230008 61 215 10.0 15.0 0.00 0.00 0.00 70 1012.2
20260504224508 62 209 8.0 17.0 0.00 0.00 0.00 68 1012.2
20260504223009 63 204 8.0 14.0 0.00 0.00 0.00 66 1012.1
20260504221510 64 165 7.0 15.0 0.00 0.00 0.00 65 1012.1
20260504220018 65 212 4.0 11.0 0.00 0.00 0.00 64 1012.1
20260504214510 66 205 5.0 9.0 0.00 0.00 0.00 62 1012.0
20260504213014 65 194 3.0 10.0 0.00 0.00 0.00 64 1012.2
20260504211513 65 207 6.0 12.0 0.00 0.00 0.00 64 1012.5
20260504210012 65 170 7.0 13.0 0.00 0.00 0.00 64 1012.5
20260504204523 64 197 5.0 14.0 0.00 0.00 0.00 65 1012.7
20260504203020 63 204 7.0 16.0 0.00 0.00 0.00 67 1012.8
20260504201512 63 194 9.0 16.0 0.00 0.00 0.00 67 1012.8
20260504200024 64 195 10.0 16.0 0.00 0.00 0.00 65 1012.9
20260504194531 63 171 7.0 13.0 0.00 0.00 0.00 66 1013.1
20260504193020 62 192 6.0 15.0 0.00 0.00 0.00 68 1013.1
20260504191507 62 180 8.0 17.0 0.00 0.00 0.00 68 1013.2
20260504190010 61 105 10.0 19.0 0.00 0.00 0.00 69 1013.4
20260504184514 61 161 10.0 17.0 0.00 0.00 0.00 69 1013.5
20260504183004 61 190 11.0 23.0 0.00 0.00 0.00 68 1013.7
20260504181503 62 207 12.0 17.0 0.00 0.00 0.00 67 1013.8
20260504180013 61 178 9.0 16.0 0.00 0.00 0.00 67 1013.8
20260504174512 61 179 10.0 19.0 0.00 0.00 0.00 68 1014.0
20260504173020 61 200 10.0 19.0 0.00 0.00 0.00 68 1014.2
20260504171504 61 193 9.0 16.0 0.00 0.00 0.00 68 1014.5